Location: Newark
(50.4348°N, 30.5552°E)
Time: 14:40:20
(UTC+00:00)

Transit 2A Rocket - Pass Details

Date: 03 February 2020
Orbit: 591 x 912 km, 66.7° (Epoch: 29 February)

Event Time Altitude Azimuth Distance (km) Brightness Sun altitude
Exits shadow 04:43:08 - 314° (NW) 2,233 6.9 -7.9°
Reaches altitude 10° 04:44:34 10° 331° (NNW) 2,001 6.8 -7.7°
Maximum altitude 04:46:04 11° 350° (N) 1,929 6.8 -7.4°
Drops below altitude 10° 04:47:34 10° 10° (N) 2,048 7.2 -7.2°
Sets 04:51:41 0° 44° (NE) 3,039 8.5 -6.6°
